Kingston, Jamaica

4:12 PM EST on August 22, 2017 (GMT -0500)
Norman Manley International

Weather History for MKJP - November, 2012

Change the Weather History Date:

Friday, November 16, 2012

  Actual Average Record
Temperature  
Mean Temperature 81 °F -  
Max Temperature 87 °F 84 °F 91 °F (2006)
Min Temperature 75 °F 75 °F 75 °F (1996)
Cooling Degree Days 16    
Growing Degree Days 31 (Base 50)    
Moisture  
Dew Point 73 °F    
Average Humidity 78    
Maximum Humidity 95    
Minimum Humidity 57    
Precipitation  
Precipitation 1.57 in - - ()
Sea Level Pressure  
Sea Level Pressure 29.89 in    
Wind  
Wind Speed 7 mph ()    
Max Wind Speed 14 mph    
Max Gust Speed -    
Visibility 7.0 miles    
Events Rain , Thunderstorm    
Averages and records for this station are not official NWS values.
T = Trace of Precipitation, MM = Missing Value Source: Averaged Metar Reports

Daily Weather History Graph

Daily Weather History Graph

Search for Another Location

Airport or City:

Trip Planner

Search our weather history database for the weather conditions in past years. The results will help you decide how hot, cold, wet, or windy it might be!

Date:

Astronomy

Nov. 16, 2012 Rise Set
Actual Time 6:13 AM EST 5:30 PM EST
Civil Twilight 5:50 AM EST 5:53 PM EST
Nautical Twilight 5:24 AM EST 6:19 PM EST
Astronomical Twilight 4:58 AM EST 6:45 PM EST
Moon 8:59 AM EST (11/16) 8:32 PM EST (11/16)
Length of Visible Light 12h 02m
Length of Day
11h 16m
Waxing Crescent, 11% of the Moon is Illuminated
Nov 16
Waxing Crescent
Nov 20
First Quarter
Nov 28
Full
Dec 6
Last Quarter
Dec 13
New

Hourly Weather History & Observations

Time (EST) Temp. Heat Index Dew Point Humidity Pressure Visibility Wind Dir Wind Speed Gust Speed Precip Events Conditions
12:00 AM 80.6 °F 85.4 °F 73.4 °F 79% 29.89 in 6.2 mi NNE 11.5 mph - N/A   Partly Cloudy
1:00 AM 80 °F - 73 °F 74% 29.88 in 12 mi East 4.6 mph - -   Haze
1:00 AM 80.6 °F 85.4 °F 73.4 °F 79% 29.86 in 6.2 mi East 4.6 mph - N/A   Partly Cloudy
2:00 AM 80.6 °F 85.4 °F 73.4 °F 79% 29.86 in 6.2 mi North 9.2 mph - N/A   Partly Cloudy
3:00 AM 80.6 °F 84.6 °F 71.6 °F 74% 29.83 in 6.2 mi NNE 9.2 mph - N/A   Partly Cloudy
4:00 AM 81 °F - 72 °F 68% 29.86 in 12 mi NNE 9.2 mph - -   Haze
4:00 AM 80.6 °F 84.6 °F 71.6 °F 74% 29.86 in 6.2 mi NNE 9.2 mph - N/A   Partly Cloudy
5:00 AM 80.6 °F 84.6 °F 71.6 °F 74% 29.86 in 6.2 mi North 6.9 mph - N/A   Partly Cloudy
6:00 AM 78.8 °F - 73.4 °F 83% 29.89 in 6.2 mi North 11.5 mph - N/A   Scattered Clouds
7:00 AM 80 °F - 74 °F 76% 29.89 in 15 mi North 12.7 mph - -   Haze
7:00 AM 80.6 °F 85.4 °F 73.4 °F 79% 29.89 in 6.2 mi North 12.7 mph - N/A   Mostly Cloudy
8:00 AM 80.6 °F 85.4 °F 73.4 °F 79% 29.89 in 6.2 mi NNE 8.1 mph - N/A   Mostly Cloudy
9:00 AM 82.4 °F 88.2 °F 73.4 °F 74% 29.92 in 6.2 mi North 6.9 mph - N/A   Mostly Cloudy
10:00 AM 85 °F - 72 °F 57% 29.94 in 12 mi WSW 4.6 mph - -   Haze
10:00 AM 84.2 °F 89.6 °F 71.6 °F 66% 29.92 in 6.2 mi WSW 4.6 mph - N/A   Scattered Clouds
11:00 AM 84.2 °F 90.9 °F 73.4 °F 70% 29.92 in 6.2 mi WNW 5.8 mph - N/A   Scattered Clouds
12:00 PM 86.0 °F 93.4 °F 73.4 °F 66% 29.89 in 6.2 mi SW 4.6 mph - N/A   Partly Cloudy
1:00 PM 85 °F - 73 °F 59% 29.88 in 17 mi South 6.9 mph - -   Haze
1:00 PM 84.2 °F 90.9 °F 73.4 °F 70% 29.86 in 6.2 mi South 6.9 mph - N/A   Mostly Cloudy
2:00 PM 84.2 °F 90.9 °F 73.4 °F 70% 29.86 in 6.2 mi SSW 6.9 mph - N/A   Mostly Cloudy
3:00 PM 84.2 °F 92.3 °F 75.2 °F 74% 29.83 in 6.2 mi South 8.1 mph - N/A   Mostly Cloudy
3:24 PM 82.4 °F 89.5 °F 75.2 °F 79% 29.86 in 6.2 mi ESE 8.1 mph - N/A Rain Rain Showers
4:00 PM 78 °F - 74 °F 82% 29.88 in 2 mi NNW 5.8 mph - - Rain , Thunderstorm Thunderstorms and Rain
4:00 PM 78.8 °F - 73.4 °F 83% 29.86 in 1.9 mi NNW 5.8 mph - N/A Rain , Thunderstorm Light Thunderstorms and Rain
4:18 PM 78.8 °F - 75.2 °F 89% 29.89 in 0.5 mi ESE 9.2 mph - N/A Rain , Thunderstorm Thunderstorms and Rain
5:00 PM 75.2 °F - 73.4 °F 94% 29.89 in 4.3 mi East 12.7 mph - N/A Rain Light Rain Showers
5:15 PM 77.0 °F - 73.4 °F 89% 29.89 in 6.2 mi NE 8.1 mph - N/A Thunderstorm Thunderstorm
6:00 PM 77.0 °F - 73.4 °F 89% 29.89 in 4.3 mi North 12.7 mph - N/A Rain Light Rain Showers
7:00 PM 75 °F - 74 °F 95% 29.91 in 11 mi NW 13.8 mph - - Rain Light Rain Showers
7:00 PM 75.2 °F - 73.4 °F 94% 29.89 in 6.2 mi NW 13.8 mph - N/A Rain Light Rain Showers
7:18 PM 77.0 °F - 71.6 °F 83% 29.89 in 6.2 mi NNE 6.9 mph - N/A   Mostly Cloudy
8:00 PM 77.0 °F - 71.6 °F 83% 29.92 in 6.2 mi ENE 4.6 mph - N/A   Mostly Cloudy
9:00 PM 77.0 °F - 71.6 °F 83% 29.92 in 6.2 mi NNW 2.3 mph - N/A   Mostly Cloudy
10:00 PM 78 °F - 71 °F 73% 29.93 in 12 mi NNW 6.9 mph - -   Haze
10:00 PM 78.8 °F - 71.6 °F 78% 29.92 in 6.2 mi NNW 6.9 mph - N/A   Scattered Clouds
11:00 PM 78.8 °F - 69.8 °F 74% 29.89 in 6.2 mi North 12.7 mph - N/A   Partly Cloudy